Terminal Aerodrome Forecast
Issued by NWS

Home | Current Version | Previous Version | Graphics & Text | Print | Product List | Glossary On
Versions: 1 2 3 4 5 6 7 8 9 10 11 12 13 14 15 16 17 18 19 20 21 22 23 24 25 26 27 28 29 30 31 32 33
905
FTUS43 KABR 201016 AAB
TAFMBG
TAF AMD
KMBG 201016Z 2010/2106 34014KT 3SM -SN OVC050
     FM201500 33010KT P6SM BKN035
     FM210000 28008KT P6SM SCT150=

USA.gov is the U.S. government's official web portal to all federal, state and local government web resources and services.